Location: Brantley
(31.5822°N, 86.2569°W)
Time: 13:53:48
(UTC+00:00)

Transit 2A Rocket - Pass Details

Date: 22 February 2026
Orbit: 583 x 900 km, 66.7° (Epoch: 11 March)

Event Time Altitude Azimuth Distance (km) Brightness Sun altitude
Rises 06:09:31 0° 334° (NNW) 3,272 - -68.4°
Reaches altitude 10° 06:12:02 10° 334° (NNW) 2,290 - -68.4°
Maximum altitude 06:17:15 89° 242° (WSW) 710 - -68.2°
Drops below altitude 10° 06:21:57 10° 156° (SSE) 2,071 - -67.9°
Sets 06:24:08 0° 156° (SSE) 2,936 - -67.8°
